Home > Weather > Cadiz > Past weeks

Flag for Spain Weather for the Past 2 Weeks in Cadiz, Cádiz, Spain

Now
61 °F

Passing clouds.


Feels Like: 61 °F
Forecast: 53 / 61 °F
Wind: 12 mph from Southwest

Location: Rota Airport

Current Time: Feb 7, 2016 at 12:29:32 AM

Latest Report: Feb 6, 2016 at 11:00 PM


Visibility: 6 mi

Pressure: 30.21 "Hg

Humidity: 88%

Dew point: 57 °F

Location of CadizLocation

Historic Weather in Cadiz — Graph

°F

Cadiz Temperature Yesterday

Maximum temperature yesterday: 66 °F (at 2:00 PM)
Minimum temperature yesterday: 55 °F (at 2:00 AM)
Average temperature yesterday: 60 °F

High & Low Weather Summary for the Past Weeks

 TemperatureHumidityPressure
High70 °F (Feb 1, 2:00 PM)100% (Jan 23, 2:00 AM)30.60 "Hg (Jan 23, 2:00 AM)
Low41 °F (Jan 27, 8:00 AM)46% (Feb 2, 3:00 PM)30.15 "Hg (Feb 6, 7:00 PM)
Average56 °F81%30.39 "Hg
* Reported Jan 22 10:00 PM — Feb 6 10:00 PM, Cadiz, Weather by CustomWeather, © 2016

Note: Actual official high and low records may vary slightly from our data, if they occured in-between our weather recording intervals... More about our weather records

Advertising

Cadiz Weather History for the Previous 24 Hours

 ConditionsComfort  
Time TempWeatherWind HumidityBarometerVisibility
10:00 PM
Sat, Feb 6
61 °FPassing clouds.15 mph88%30.18 "HgN/A
9:00 PM61 °FPassing clouds.13 mph88%30.18 "HgN/A
8:00 PM61 °FPassing clouds.13 mph88%30.18 "HgN/A
7:00 PM61 °FPassing clouds.12 mph88%30.15 "HgN/A
6:00 PM63 °FPassing clouds.12 mph83%30.18 "HgN/A
5:00 PM63 °FPartly sunny.14 mph88%30.18 "Hg6 mi
4:00 PM66 °FBroken clouds.14 mph78%30.18 "HgN/A
3:00 PM64 °FPartly sunny.15 mph83%30.18 "HgN/A
2:00 PM66 °FPartly sunny.14 mph78%30.21 "HgN/A
1:00 PM64 °FPartly sunny.13 mph83%30.24 "HgN/A
12:00 PM63 °FBroken clouds.12 mph88%30.24 "HgN/A
11:00 AM61 °FScattered clouds.12 mph88%30.21 "HgN/A
10:48 AM61 °FScattered clouds.13 mph83%30.21 "HgN/A
10:00 AM59 °FPartly sunny.8 mph82%30.21 "HgN/A
9:00 AM57 °FBroken clouds.8 mph88%30.21 "HgN/A
8:00 AM57 °FPassing clouds.9 mph82%30.18 "HgN/A
7:00 AM57 °FPassing clouds.8 mph82%30.18 "HgN/A
6:00 AM57 °FPassing clouds.8 mph88%30.18 "HgN/A
5:00 AM57 °FPassing clouds.8 mph82%30.18 "HgN/A
4:00 AM57 °FPassing clouds.10 mph82%30.21 "HgN/A
3:00 AM57 °FPassing clouds.8 mph82%30.21 "HgN/A
2:00 AM55 °FClear.5 mph88%30.24 "Hg10 mi
1:00 AM57 °FPassing clouds.6 mph82%30.24 "HgN/A
12:00 AM57 °FPassing clouds.9 mph82%30.24 "HgN/A
Weather by CustomWeather, © 2016

See weather overviewHow to use our weather pages